Погода в Соколове

Россия / Республика Коми     65°20′46″N   57°00′59″E
темп.,
°C
ветер,
м/с
пор.,
м/с
влажн.,
%
обл.,
%
осадки,
мм/ч
давл.,
гПа
погр.,
м
16 мая, вс
вс1600:00+5ссв23845 0.0 1016101
03:00+4в24865 0.0 1016190
06:00+7св337467 0.0 1016360
09:00+10всв2365100 0.0 1014523
12:00+13всв2358100 0.0 1013677
15:00+13св2268100 0.3 1011426
18:00+10всв5875100 0.1 1009324
21:00+9св4785100 1.6 1009273
17 мая, пн
пн1700:00+8св4684100 0.6 1009301
03:00+8св4786100 0.6 1008271
06:00+7св4791100 2.9 1009262
09:00+6св51089100 5.5 1010396
12:00+7ссв51090100 2.3 1011487
15:00+11ссв5865100 2.9 1013895
18:00+11ссв585963 0.0 10151032
21:00+8с495958 0.0 1018310
18 мая, вт
вт1800:00+5с4856100 0.0 1020252
03:00+3с37645 0.0 1022240
06:00+5с3450100 0.0 1024446
09:00+8с23355 0.0 1025697
12:00+12ссв11255 0.0 1025911
15:00+14св112650 0.0 10241076
18:00+14юв1129100 0.0 1024851
21:00+12ююв2339100 0.0 102463
19 мая, ср
ср1900:00+10ю3549100 0.0 102399
03:00+9ю3756100 0.0 1023153
06:00+12ю4104998 0.0 1021355
09:00+18ююз6834100 0.0 1019856
12:00+22ююз683394 0.0 10171396
15:00+24юз6934100 0.0 10141578
18:00+24зюз5103968 0.0 1012801
21:00+20ююз4115543 0.0 1011214
20 мая, чт
чт2000:00+19юз5135460 0.0 1010294
03:00+17юз410655 0.0 1010218
06:00+20зюз5105887 0.5 1010392
09:00+25з694091 0.7 1010809
12:00+28зсз59325 0.0 10092005
15:00+29зсз482799 0.0 10091802
18:00+26ссв2433100 0.0 1009161
21:00+21ююв345619 0.0 101074